QPF
0.00 0.00 0.00 0.00 0.00 0.00 0.00 0.00 0.00 0.00 0.00 0.00 0.00 0.00 0.00 0.00 0.00 0.01 0.01 0.01 0.00 0.01
0.00 0.00 0.00 0.00 0.00 0.00 0.00 0.00 0.00 0.00 0.00 0.00 0.00 0.00 0.01 0.01 0.00 0.00 0.01 0.01 0.01 0.01
0.00 0.00 0.00 0.00 0.00 0.00 0.00 0.00 0.00 0.00 0.00 0.00 0.00 0.00 0.01 0.01 0.01 0.00 0.01 0.02 0.01 0.01
0.00 0.00 0.00 0.00 0.00 0.00 0.00 0.00 0.00 0.00 0.00 0.00 0.00 0.00 0.01 0.02 0.02 0.01 0.01 0.02 0.01 0.01
0.00 0.00 0.00 0.00 0.00 0.00 0.00 0.00 0.00 0.00 0.00 0.00 0.01 0.01 0.01 0.01 0.02 0.02 0.02 0.01 0.01 0.02
0.00 0.00 0.00 0.00 0.00 0.00 0.00 0.00 0.00 0.00 0.01 0.02 0.08 0.10 0.05 0.01 0.01 0.03 0.03 0.03 0.02 0.01
0.00 0.00 0.00 0.00 0.00 0.00 0.00 0.00 0.00 0.00 0.01 0.04 0.05 0.07 0.08 0.03 0.03 0.02 0.02 0.02 0.02 0.01
0.00 0.00 0.00 0.00 0.00 0.00 0.00 0.00 0.00 0.00 0.02 0.04 0.08 0.10 0.07 0.04 0.06 0.04 0.03 0.02 0.01 0.01
0.00 0.00 0.00 0.00 0.00 0.00 0.00 0.00 0.00 0.01 0.02 0.05 0.09 0.14 0.10 0.08 0.09 0.12 0.12 0.06 0.02 0.02
0.00 0.00 0.00 0.00 0.00 0.00 0.00 0.00 0.00 0.00 0.04 0.07 0.07 0.09 0.11 0.10 0.16 0.14 0.12 0.12 0.07 0.04
0.00 0.00 0.00 0.00 0.00 0.00 0.00 0.00 0.00 0.00 0.03 0.07 0.07 0.09 0.08 0.07 0.06 0.10 0.05 0.05 0.07 0.09
0.00 0.00 0.00 0.00 0.00 0.00 0.00 0.00 0.00 0.02 0.05 0.07 0.11 0.09 0.04 0.04 0.04 0.02 0.03 0.01 0.01 0.06
0.00 0.00 0.00 0.00 0.00 0.00 0.00 0.00 0.02 0.04 0.07 0.10 0.10 0.11 0.04 0.02 0.01 0.04 0.04 0.06 0.03 0.06
0.00 0.00 0.00 0.00 0.00 0.00 0.00 0.03 0.06 0.07 0.06 0.06 0.07 0.08 0.07 0.03 0.02 0.07 0.09 0.09 0.09 0.06
MSLP
1021.86 1021.43 1021.05 1020.57 1019.88 1019.36 1018.71 1017.80 1017.13 1016.73 1016.32 1015.75 1015.22 1014.71 1014.28 1013.94 1013.87 1014.04 1014.21 1014.30 1014.48 1014.85
1021.69 1021.05 1020.64 1020.06 1019.62 1019.02 1018.42 1017.71 1016.95 1016.33 1015.90 1015.39 1014.83 1014.48 1014.04 1013.50 1013.18 1013.32 1013.49 1013.62 1013.88 1014.12
1021.43 1020.77 1020.28 1019.75 1019.18 1018.66 1018.08 1017.41 1016.75 1016.06 1015.49 1014.86 1014.28 1013.79 1013.34 1012.91 1012.52 1012.50 1012.70 1012.96 1013.17 1013.56
1021.34 1020.62 1019.94 1019.24 1018.68 1018.26 1017.74 1017.17 1016.51 1015.70 1015.03 1014.37 1013.59 1013.05 1012.40 1012.11 1011.88 1011.81 1011.96 1012.23 1012.58 1012.90
1021.03 1020.30 1019.55 1018.87 1018.31 1017.81 1017.27 1016.69 1015.97 1015.23 1014.53 1013.81 1013.01 1012.09 1011.41 1011.26 1011.13 1011.19 1011.32 1011.60 1011.97 1012.29
1020.59 1019.89 1019.31 1018.62 1017.90 1017.35 1016.82 1016.21 1015.33 1014.75 1014.01 1013.23 1012.49 1011.58 1010.39 1010.36 1010.33 1010.46 1010.64 1011.00 1011.12 1011.58
1020.15 1019.51 1019.03 1018.27 1017.49 1016.84 1016.26 1015.67 1014.77 1014.23 1013.50 1012.74 1012.05 1011.09 1009.93 1009.66 1009.71 1009.75 1010.13 1010.36 1010.77 1011.07
1019.94 1019.31 1018.61 1017.84 1017.11 1016.42 1015.78 1015.09 1014.27 1013.60 1012.81 1012.09 1011.40 1010.44 1009.45 1009.00 1009.03 1009.29 1009.59 1009.80 1010.33 1010.80
1019.71 1018.99 1018.19 1017.43 1016.71 1016.01 1015.21 1014.34 1013.67 1012.99 1012.29 1011.45 1010.71 1009.90 1009.22 1008.42 1008.62 1008.77 1009.16 1009.67 1010.12 1010.49
1019.24 1018.51 1017.75 1017.04 1016.33 1015.51 1014.65 1013.70 1013.05 1012.30 1011.61 1010.84 1010.06 1009.40 1008.71 1008.16 1008.22 1008.35 1008.75 1009.13 1010.09 1010.45
1018.83 1018.05 1017.31 1016.63 1015.87 1015.00 1014.16 1013.10 1012.42 1011.59 1010.93 1010.24 1009.42 1008.90 1008.37 1008.02 1008.04 1008.28 1008.80 1009.20 1009.85 1010.35
1018.52 1017.69 1016.94 1016.15 1015.32 1014.50 1013.58 1012.52 1011.81 1011.02 1010.36 1009.67 1008.79 1008.38 1008.13 1008.00 1008.19 1008.64 1009.22 1009.54 1009.89 1010.43
1018.02 1017.25 1016.46 1015.64 1014.81 1013.91 1012.90 1011.98 1011.25 1010.54 1009.92 1009.12 1008.29 1007.82 1007.69 1008.04 1008.44 1009.01 1009.51 1010.06 1010.36 1010.80
1017.36 1016.67 1015.89 1015.03 1014.19 1013.29 1012.31 1011.52 1010.88 1010.36 1009.64 1008.81 1008.22 1008.09 1008.21 1008.47 1008.69 1009.09 1009.62 1010.31 1010.74 1011.29
Thickness
5446 5451 5452 5454 5459 5462 5465 5471 5475 5478 5483 5487 5492 5497 5503 5510 5514 5517 5520 5524 5528 5530
5436 5441 5443 5446 5448 5451 5454 5459 5463 5467 5471 5476 5481 5484 5490 5499 5506 5509 5512 5516 5519 5522
5426 5430 5433 5436 5438 5440 5443 5446 5451 5455 5459 5464 5469 5475 5480 5489 5497 5502 5506 5509 5512 5513
5414 5419 5423 5427 5429 5429 5431 5434 5438 5443 5447 5451 5458 5464 5473 5480 5488 5494 5499 5502 5504 5506
5404 5409 5412 5415 5417 5418 5420 5422 5426 5431 5436 5441 5448 5458 5467 5473 5481 5487 5491 5495 5497 5500
5394 5397 5400 5402 5404 5406 5407 5410 5416 5420 5427 5433 5441 5450 5464 5469 5476 5482 5486 5488 5492 5494
5383 5385 5386 5388 5391 5393 5395 5400 5407 5412 5419 5426 5433 5444 5459 5466 5470 5477 5479 5483 5485 5487
5369 5370 5372 5374 5376 5379 5383 5389 5398 5405 5414 5421 5429 5442 5455 5463 5468 5471 5474 5478 5478 5478
5355 5356 5356 5358 5360 5363 5371 5382 5391 5399 5408 5417 5426 5437 5449 5460 5463 5466 5469 5470 5470 5472
5342 5342 5343 5345 5349 5353 5361 5374 5384 5394 5404 5413 5423 5434 5445 5455 5459 5463 5465 5467 5462 5464
5329 5332 5335 5338 5342 5346 5354 5368 5379 5391 5401 5411 5422 5432 5441 5449 5453 5456 5457 5459 5458 5458
5319 5324 5327 5331 5336 5341 5351 5365 5376 5388 5398 5408 5420 5429 5437 5442 5444 5446 5447 5449 5451 5451
5314 5319 5322 5325 5329 5337 5350 5363 5375 5386 5396 5408 5419 5427 5433 5434 5435 5434 5436 5438 5441 5442
5310 5314 5316 5319 5324 5336 5350 5362 5373 5381 5392 5404 5414 5419 5422 5424 5427 5429 5432 5431 5433 5433